This is the latest recevied weather packets stored in our database for station/object IK6IHU-3. If no packets are shown the sender has not sent any weather packets the latest 10 day(s).
| Time | Temp. | Humidity | Pressure | Rain* | Wind** | Luminosity | Snow |
|---|---|---|---|---|---|---|---|
| 1778324732 | 21.11° C | 59% | 1016.5 hPa | 0 mm | - | 0 W/m² | - |
| 1778324672 | 21.11° C | 59% | 1016.5 hPa | 0 mm | - | 0 W/m² | - |
| 1778324612 | 20.56° C | 59% | 1016.5 hPa | 0 mm | - | 0 W/m² | - |
| 1778324552 | 20.56° C | 60% | 1016.5 hPa | 0 mm | - | 0 W/m² | - |
| 1778324492 | 20° C | 59% | 1016.4 hPa | 0 mm | - | 0 W/m² | - |
| 1778324432 | 20.56° C | 59% | 1016.5 hPa | 0 mm | - | 0 W/m² | - |
| 1778324372 | 20.56° C | 59% | 1016.7 hPa | 0 mm | - | 0 W/m² | - |
| 1778324312 | 20.56° C | 59% | 1016.5 hPa | 0 mm | - | 0 W/m² | - |
| 1778324252 | 20.56° C | 58% | 1016.5 hPa | 0 mm | - | 0 W/m² | - |
| 1778324192 | 20.56° C | 58% | 1016.6 hPa | 0 mm | - | 0 W/m² | - |
| 1778324132 | 20.56° C | 58% | 1016.5 hPa | 0 mm | - | 0 W/m² | - |
| 1778324072 | 20.56° C | 57% | 1016.4 hPa | 0 mm | - | 0 W/m² | - |
| 1778324012 | 20.56° C | 58% | 1016.5 hPa | 0 mm | - | 0 W/m² | - |
| 1778323952 | 20.56° C | 58% | 1016.2 hPa | 0 mm | - | 0 W/m² | - |
| 1778323892 | 21.11° C | 58% | 1016.4 hPa | 0 mm | - | 0 W/m² | - |
| 1778323832 | 21.11° C | 57% | 1016.4 hPa | 0 mm | - | 0 W/m² | - |
| 1778323772 | 21.11° C | 58% | 1016.4 hPa | 0 mm | - | 0 W/m² | - |
| 1778323712 | 21.11° C | 57% | 1016.4 hPa | 0 mm | - | 0 W/m² | - |
| 1778323652 | 21.11° C | 58% | 1016.4 hPa | 0 mm | - | 0 W/m² | - |
| 1778323592 | 21.67° C | 57% | 1016.6 hPa | 0 mm | - | 0 W/m² | - |
| 1778323532 | 21.67° C | 57% | 1016.3 hPa | 0 mm | - | 0 W/m² | - |
| 1778323472 | 21.67° C | 58% | 1016.4 hPa | 0 mm | - | 0 W/m² | - |
| 1778323412 | 21.11° C | 57% | 1016.6 hPa | 0 mm | - | 0 W/m² | - |
| 1778323352 | 21.11° C | 58% | 1016.5 hPa | 0 mm | - | 0 W/m² | - |
| 1778323292 | 20.56° C | 58% | 1016.5 hPa | 0 mm | - | 0 W/m² | - |
* Rain latest hour (hover to see other rain measurements)
** Current wind speed in m/s (hover to see current wind gust speed)